Theta_e
330 328 333 335 334 338 340 340 340 340 340 340 339 339 338 338 338 336 335 334 334 335 336 336 336 337 337 337 337 338 338 335 333 335 336 336 337 336 337 337 337 338 339 339 339 339 339 339 340 340 341 340 338 337 335 330 325 324 324 324 324 326 332 335 337 336 335 334 334 336 339 341 340 339 337 334 331 329 329 331 337 341 339 336 336
327 327 333 335 334 337 340 340 340 341 339 340 340 339 339 338 339 337 335 335 334 335 336 336 336 336 336 337 337 338 339 338 337 336 336 336 337 337 337 337 338 338 339 339 338 338 339 340 340 340 340 339 336 334 333 330 326 324 324 324 324 324 326 329 333 334 334 333 334 336 338 341 341 338 336 334 332 331 328 327 332 337 334 329 332
327 327 333 335 335 337 339 340 341 342 340 340 340 339 339 339 338 336 335 334 334 334 334 335 336 337 338 338 337 337 338 338 338 338 337 337 337 338 338 337 338 339 339 339 338 339 340 340 340 339 338 337 335 333 331 331 329 327 326 326 326 325 324 325 327 331 333 333 333 337 339 340 340 337 333 332 332 333 332 329 328 332 330 324 324
327 327 333 335 336 336 339 340 341 341 340 340 339 339 339 339 338 334 332 332 332 332 334 336 337 338 339 339 339 338 338 339 338 338 338 338 337 338 337 337 338 338 339 339 339 339 339 339 339 338 336 336 335 334 332 332 331 330 329 328 328 327 327 326 325 326 329 332 333 337 340 340 341 338 334 333 333 334 334 332 329 329 329 327 322
326 327 333 334 336 337 337 339 340 341 340 340 340 340 339 338 338 335 332 331 332 334 336 337 338 339 339 339 339 338 338 338 338 339 339 337 337 337 337 338 338 338 339 340 340 339 338 338 338 337 335 335 334 334 333 332 332 332 331 331 330 329 328 328 327 326 326 327 330 335 339 340 341 339 337 335 334 335 335 334 332 330 329 330 327
327 328 333 335 337 339 337 338 339 340 340 340 340 340 340 338 338 337 334 333 335 336 337 338 339 339 339 340 339 338 338 338 338 339 339 337 337 337 337 337 338 338 339 339 339 338 337 337 336 335 335 334 334 332 331 331 331 330 331 331 330 330 329 328 328 328 327 325 327 333 336 338 340 340 339 337 337 336 337 336 333 331 328 330 332
328 327 334 336 339 340 337 338 339 340 340 340 340 340 340 339 339 338 336 336 337 337 338 338 339 339 339 340 339 339 338 339 339 338 338 337 337 337 337 337 337 338 339 338 337 337 336 336 335 334 334 333 333 331 330 330 329 329 329 329 329 328 327 326 326 326 328 327 327 331 334 336 339 339 339 339 338 338 338 337 334 331 329 328 331
328 327 334 337 339 340 337 337 338 340 339 340 339 339 339 338 339 338 337 336 337 338 338 338 338 339 339 339 339 339 339 338 338 337 337 337 336 336 336 337 337 337 337 336 335 335 334 334 334 333 332 332 331 330 330 329 328 327 326 326 324 323 322 321 321 322 324 326 327 328 332 336 337 338 339 339 338 338 336 335 334 331 330 327 330
329 327 333 337 339 339 336 335 337 338 339 339 338 338 338 338 338 337 336 336 337 338 338 338 338 339 338 338 339 339 338 337 337 336 336 335 335 335 336 336 336 336 336 335 334 333 332 332 333 333 332 332 331 329 328 326 324 322 320 317 315 314 313 313 313 315 319 322 325 326 327 332 336 336 337 338 337 337 334 335 336 334 333 329 330
330 329 333 336 338 337 334 334 335 336 338 338 337 338 337 337 338 336 336 337 337 338 338 339 339 339 338 339 338 338 337 336 336 335 334 333 332 333 334 335 334 334 334 333 332 331 330 330 331 330 331 330 329 326 323 320 316 313 310 307 305 304 304 304 305 307 313 319 323 326 325 329 334 335 335 336 337 336 334 334 335 335 335 333 333
330 330 333 336 337 336 332 333 334 335 337 337 337 336 336 336 337 336 337 338 338 338 339 339 339 338 338 339 338 337 336 335 335 333 332 331 331 331 332 333 333 332 332 331 330 330 329 328 328 327 327 325 322 318 313 310 307 304 302 301 300 300 300 300 301 302 309 316 321 326 327 328 332 334 334 335 336 335 334 334 334 335 335 335 336
329 329 332 335 336 335 332 334 334 335 337 336 336 335 336 337 337 337 337 338 338 338 339 339 338 338 338 338 336 335 335 334 333 332 330 329 329 330 331 332 331 330 329 329 329 328 328 326 324 322 319 315 311 307 304 302 301 300 300 300 300 300 300 299 300 301 307 314 319 324 328 331 331 332 332 332 333 333 334 335 335 336 336 336 336
326 327 330 334 336 335 334 336 335 335 336 335 335 335 337 337 337 337 338 339 338 338 338 338 338 338 337 336 335 334 333 332 330 329 328 327 327 328 329 329 329 328 328 328 327 327 325 322 317 312 308 305 303 301 300 300 300 300 300 300 300 300 300 300 300 302 307 313 318 322 327 330 330 330 330 330 331 332 333 333 334 335 335 334 334
325 327 330 333 334 334 335 337 336 335 335 334 334 335 336 337 337 337 337 338 338 338 337 338 337 336 336 334 334 332 331 329 328 328 327 326 326 327 327 327 327 327 327 327 326 324 321 316 310 305 302 301 300 300 300 300 300 300 300 300 300 300 300 300 300 301 306 313 318 322 325 328 328 329 329 329 329 330 331 331 332 332 332 332 332
325 327 329 331 333 334 335 337 336 335 336 335 335 335 336 337 337 337 337 337 337 337 336 336 336 335 334 332 331 330 330 328 327 327 326 325 326 326 326 326 326 325 325 325 322 319 316 311 305 301 299 299 300 300 299 299 299 299 299 299 299 299 299 300 301 302 306 312 318 322 325 326 326 327 328 327 328 328 329 329 330 330 330 330 330
327 328 330 331 333 334 334 336 335 336 336 335 335 334 335 336 336 335 335 335 334 334 333 333 334 333 331 330 329 329 329 327 327 326 325 325 324 324 324 325 325 324 324 321 317 314 311 307 302 299 299 299 299 299 299 298 299 298 298 298 298 298 298 299 301 303 307 311 317 322 324 324 324 326 326 326 326 327 327 328 327 327 328 328 327
330 330 332 332 333 334 334 336 336 336 336 334 334 334 334 334 334 334 334 332 332 332 331 332 333 330 329 329 328 328 328 327 326 325 325 324 323 322 322 323 322 322 321 317 313 311 308 304 299 299 299 299 299 298 298 298 298 298 298 298 297 298 297 298 300 302 305 310 316 320 323 323 323 324 325 325 325 325 326 326 325 325 325 325 325
330 331 332 332 333 334 334 335 335 335 334 333 332 332 333 332 332 332 332 331 331 331 330 331 331 329 328 328 328 328 327 326 325 324 324 323 321 320 320 320 320 320 318 313 310 308 304 300 299 299 299 298 298 298 298 298 298 298 297 297 297 297 297 297 298 299 302 308 315 319 321 321 322 323 323 323 324 324 324 323 323 323 323 323 323
330 330 331 332 333 333 334 334 334 335 334 333 331 330 329 328 329 330 331 331 331 331 330 330 330 328 328 328 327 327 326 325 324 323 323 321 319 318 318 319 319 318 314 309 308 304 300 299 299 299 299 299 298 298 299 298 299 298 298 298 297 297 296 297 297 297 299 304 313 317 317 319 321 322 322 322 322 322 321 321 321 321 321 321 321
329 330 330 331 332 333 333 333 333 333 333 332 330 329 327 326 328 329 330 330 330 330 330 329 329 328 327 327 327 326 326 325 323 322 321 318 316 315 317 319 319 317 312 308 305 301 298 298 298 298 298 298 299 299 299 299 299 299 299 298 298 298 297 297 296 297 297 299 307 312 314 317 320 321 321 320 320 319 319 320 320 320 320 321 320
328 329 330 331 331 332 332 332 332 332 332 331 328 327 326 326 328 329 330 330 329 330 330 329 328 327 327 326 326 325 325 324 322 321 319 316 313 312 314 318 320 317 311 306 302 299 298 298 298 298 298 299 299 299 299 299 299 299 299 299 298 298 297 297 296 296 296 297 300 304 308 313 317 319 319 318 317 317 318 318 319 319 320 320 320
327 327 328 330 330 331 331 331 331 331 331 330 327 326 326 326 328 329 330 329 329 330 329 328 328 327 326 326 325 325 324 323 322 321 319 317 313 311 313 318 321 317 309 304 301 298 298 297 297 298 298 298 298 299 299 299 299 299 299 299 298 297 297 297 296 296 296 296 297 298 302 308 314 318 318 317 317 318 318 318 319 320 319 319 319
326 327 327 328 328 329 330 330 331 331 330 329 326 325 325 326 328 330 330 329 329 329 329 328 327 326 326 325 325 325 324 323 321 319 317 317 314 311 315 319 320 316 307 303 299 297 297 297 297 297 297 298 298 298 299 299 298 298 298 298 297 297 297 296 296 296 295 295 296 296 299 304 313 319 318 318 318 319 319 319 319 320 320 319 319
325 326 327 327 327 327 328 328 330 330 329 327 326 325 325 327 329 329 329 329 328 328 328 328 326 326 326 325 325 324 322 321 318 314 313 315 314 313 317 319 319 315 307 303 299 297 297 297 297 297 297 297 298 298 298 298 298 298 297 297 297 296 296 296 296 295 295 295 295 295 297 301 310 318 318 318 318 318 318 318 319 319 319 319 319
323 325 327 326 326 326 326 326 328 329 328 326 325 325 326 327 328 328 329 328 328 328 328 327 326 326 325 324 324 321 319 319 316 312 313 316 315 315 317 318 318 314 307 305 302 298 297 297 297 296 297 297 297 298 298 298 297 297 297 296 296 296 296 296 296 295 295 295 295 295 296 297 305 315 318 318 318 318 318 318 318 318 318 318 318
322 324 325 324 325 324 325 325 326 327 326 326 325 324 325 326 327 327 328 328 328 328 327 327 326 326 325 324 322 320 319 318 315 312 314 316 316 317 318 318 316 312 306 305 301 297 297 297 297 297 297 297 297 297 297 297 297 296 296 296 296 295 295 295 295 295 295 295 295 295 295 296 301 312 317 317 318 318 318 318 318 317 317 317 317
321 321 322 323 323 323 324 325 325 325 326 327 326 325 324 324 326 326 326 327 327 327 326 326 326 326 325 323 321 321 320 318 314 312 312 313 314 314 315 315 313 308 303 301 298 297 297 296 296 297 297 297 297 297 297 297 296 296 296 296 295 295 295 295 295 295 295 294 295 294 294 295 301 311 316 317 317 317 317 317 317 317 316 317 316
319 319 320 321 321 321 323 324 324 324 325 326 326 325 323 323 324 325 325 326 326 326 325 325 325 325 325 324 322 321 319 317 314 311 309 309 310 309 308 309 308 305 302 299 298 297 296 296 297 297 297 297 297 297 297 296 296 296 295 295 295 295 295 294 294 294 294 294 294 294 294 295 302 311 315 316 316 316 316 316 316 316 316 316 315
318 318 319 319 319 320 321 323 323 323 324 325 325 325 323 322 322 323 323 325 325 325 325 324 324 325 325 323 321 320 318 315 312 309 308 307 306 304 304 305 305 303 300 299 298 297 296 297 297 297 297 297 297 297 296 296 295 295 295 295 294 294 294 294 294 294 294 294 293 294 294 295 301 308 312 314 315 315 316 316 316 315 315 315 315
316 317 318 318 318 319 319 320 321 323 324 324 324 324 323 322 321 321 322 323 324 325 324 324 324 324 324 323 320 318 316 314 310 307 306 304 303 302 302 303 303 301 299 298 297 296 296 297 297 297 297 297 297 296 296 295 295 295 294 294 294 294 294 294 294 293 293 293 293 293 294 295 300 305 309 313 314 314 315 315 315 315 315 315 314
314 316 316 316 317 317 318 319 320 322 324 324 323 323 323 323 322 321 321 322 322 323 324 324 324 324 323 321 319 317 315 312 309 306 304 303 302 301 301 301 301 300 298 297 297 296 296 296 297 297 297 296 296 296 295 294 294 294 294 294 294 294 294 293 293 293 293 293 293 294 294 296 299 303 308 311 311 312 313 313 314 314 314 314 314
314 313 314 315 315 316 317 318 319 320 322 324 323 323 324 323 323 322 322 322 321 322 323 323 324 323 323 320 317 316 314 312 308 305 302 302 301 300 300 299 299 298 297 297 296 296 296 296 297 297 297 296 296 295 294 294 294 293 293 293 293 293 293 293 293 293 293 293 293 294 295 297 299 302 306 308 309 310 311 312 312 313 314 313 313
313 312 313 314 314 315 316 316 317 319 320 322 323 323 324 323 324 323 322 322 322 321 321 322 322 322 321 319 317 315 313 311 308 304 302 301 300 300 299 298 298 297 297 296 296 296 296 296 297 296 296 296 295 294 294 293 293 293 293 293 293 293 293 293 293 293 293 293 294 294 295 296 299 301 303 304 305 307 308 309 310 311 312 311 311
312 312 313 313 313 313 314 315 316 317 318 320 322 322 323 323 323 323 323 322 322 321 320 320 321 321 321 319 317 315 311 310 308 305 303 301 300 299 298 297 297 297 296 296 295 295 296 296 296 296 295 295 294 294 293 293 292 292 292 292 292 292 293 293 293 292 293 293 294 295 295 296 297 298 299 300 301 303 304 306 306 308 308 309 309
310 311 311 311 312 312 312 314 314 316 316 318 320 321 322 323 323 322 322 322 321 321 320 320 320 320 320 319 317 315 312 309 307 306 303 301 299 298 297 297 296 296 296 295 295 295 295 296 295 295 294 294 293 293 292 292 292 292 292 292 292 292 292 292 292 292 293 293 294 295 295 295 295 295 296 296 296 297 299 302 303 304 305 305 306
309 309 309 310 310 311 312 312 313 314 315 316 317 319 320 321 321 321 321 322 321 321 320 320 320 319 319 319 317 314 312 310 307 306 304 301 299 298 297 297 296 296 295 295 295 295 295 295 295 295 294 293 293 292 292 292 291 291 292 292 292 292 292 292 292 292 293 293 294 295 295 295 294 293 294 294 294 294 295 296 298 299 300 301 302
309 308 308 309 309 310 310 311 311 312 313 315 316 318 319 319 320 320 320 320 320 320 319 319 319 318 318 318 316 314 312 309 307 306 305 302 299 298 297 297 296 296 295 295 295 295 295 295 295 295 294 293 292 291 292 292 291 291 291 291 292 291 292 292 292 292 293 293 294 294 295 294 294 293 293 292 292 292 292 292 293 294 295 296 297
308 308 308 308 308 309 309 310 310 311 312 314 315 317 317 318 318 318 318 318 319 319 318 318 317 317 317 317 316 314 312 309 307 306 306 303 299 297 297 297 296 295 295 294 294 295 295 295 295 294 293 293 292 292 292 292 291 291 291 291 291 291 291 292 291 292 292 292 293 293 293 293 293 293 292 292 291 290 290 290 290 290 291 292 293
308 307 307 307 308 308 309 309 309 310 311 312 314 315 316 316 316 316 316 317 316 317 317 316 315 315 316 315 315 314 312 310 307 306 306 303 299 297 297 296 296 295 294 294 294 294 294 294 295 294 293 292 293 293 292 291 290 291 291 291 291 291 291 291 291 292 292 291 291 291 292 292 291 291 291 291 290 289 289 289 289 289 289 290 291
307 307 306 307 307 307 308 308 308 309 310 311 313 314 314 314 314 314 314 314 314 314 315 314 314 314 314 314 314 313 312 310 307 306 305 303 299 297 296 296 295 294 294 294 294 294 295 294 294 294 292 291 292 293 292 290 291 291 291 291 291 290 291 291 291 291 291 290 290 290 290 290 290 290 290 290 289 289 288 288 288 288 288 288 289
307 307 306 306 306 307 308 308 307 308 308 310 312 313 313 313 313 313 313 312 312 312 312 312 312 312 312 313 313 312 311 310 308 306 304 302 299 296 296 296 295 294 293 294 294 295 295 294 294 293 292 291 291 291 290 291 292 293 293 292 291 291 290 291 291 290 290 290 290 290 290 290 289 289 289 289 288 288 288 288 288 288 288 288 288
307 306 305 305 305 306 307 307 307 307 307 308 310 311 312 312 312 312 312 311 310 311 310 310 311 310 311 311 311 311 310 309 308 306 304 301 298 296 296 296 295 294 293 293 294 294 294 294 293 292 291 291 291 290 290 292 294 295 295 294 293 291 291 290 291 290 290 290 290 290 290 289 289 288 288 288 288 288 288 288 288 287 287 287 287
305 305 304 304 304 305 306 307 307 306 306 307 307 309 310 311 311 311 310 310 309 309 309 309 309 309 310 310 309 309 309 308 307 305 302 299 297 296 295 295 295 294 293 293 293 293 294 293 293 292 291 292 292 290 289 293 296 297 296 296 296 295 293 291 291 290 290 290 290 290 289 288 288 288 287 287 287 287 287 287 287 287 287 287 287
305 304 303 303 303 304 305 306 306 306 305 305 306 307 308 308 309 309 309 308 307 307 307 307 307 307 307 307 307 307 307 306 305 304 301 298 296 295 295 295 295 294 293 293 293 293 293 293 293 292 291 293 293 291 289 292 296 298 297 297 297 297 297 295 293 291 290 289 290 290 289 287 287 287 287 287 287 287 287 287 287 287 287 287 287
304 302 301 302 302 303 304 304 305 305 305 305 305 305 306 306 307 307 306 306 306 305 304 305 304 304 304 303 304 304 304 304 304 303 301 298 296 295 295 295 295 294 293 293 293 293 293 293 292 292 291 292 293 292 290 291 294 297 298 298 297 297 299 298 295 293 290 289 290 290 289 288 287 287 288 287 287 287 287 287 287 286 287 287 287
301 300 301 301 301 302 302 303 304 304 304 304 304 304 304 305 305 306 305 305 305 304 303 303 303 302 302 302 302 302 302 302 302 302 300 298 296 295 295 295 295 294 293 292 292 292 292 293 292 292 292 292 293 293 292 290 292 294 296 298 298 299 300 297 296 295 292 290 291 289 289 288 287 288 288 287 287 287 287 286 287 287 287 287 287
299 299 300 301 300 301 301 301 302 303 303 303 303 303 304 304 304 304 305 304 305 304 303 302 302 301 301 301 301 301 301 301 300 300 299 298 296 296 295 295 295 295 294 292 292 292 292 293 293 293 292 292 294 294 293 291 291 293 294 296 297 297 298 297 298 298 295 292 291 290 289 288 287 288 288 288 287 287 287 286 286 286 286 286 286
298 298 299 300 300 300 300 301 301 302 302 302 302 302 303 303 304 304 304 304 304 304 303 301 301 300 300 300 300 300 299 299 299 298 298 297 296 296 295 295 295 295 294 293 292 292 292 292 292 292 292 292 293 294 294 292 291 292 293 293 294 293 295 297 298 299 299 297 293 291 290 289 288 288 288 288 287 287 286 286 286 286 286 286 286
298 297 297 298 299 299 300 300 300 301 301 301 301 301 302 303 303 303 303 303 303 303 302 301 300 300 299 299 299 298 298 298 298 297 297 296 296 296 296 295 295 295 294 293 292 292 292 292 292 292 291 291 292 293 295 294 292 293 293 292 293 293 293 294 295 297 299 300 297 294 292 290 288 288 289 288 287 287 286 286 286 286 286 286 286
297 297 296 297 297 298 298 299 299 299 300 300 300 300 301 301 302 302 303 303 303 302 302 301 300 299 299 298 298 297 297 297 297 297 296 296 296 295 295 295 295 295 295 294 293 292 292 292 292 292 292 292 291 292 295 295 293 294 294 293 293 293 293 294 294 296 297 298 299 297 295 293 291 290 289 288 288 286 286 286 286 286 286 286 286
297 296 296 296 296 296 297 298 298 297 298 298 299 300 300 300 301 302 302 302 302 302 302 301 300 300 299 299 298 297 297 296 296 296 296 295 295 295 295 295 295 295 295 295 294 293 292 291 291 292 292 291 291 291 293 294 294 294 294 294 293 294 294 295 295 295 296 296 297 298 297 295 294 293 290 288 287 286 285 285 285 286 286 286 286
Wind_Speed
28 25 24 26 24 22 20 20 18 17 17 15 15 15 15 14 13 14 13 12 12 12 11 11 11 11 11 10 10 10 9 8 9 10 10 9 9 9 9 8 8 7 7 6 6 6 6 7 8 8 9 9 8 8 6 8 10 10 10 10 10 10 10 10 10 10 10 10 10 10 11 12 11 11 11 11 10 11 10 10 12 10 8 7 7
29 29 26 27 25 23 21 20 19 17 17 16 16 15 15 14 14 14 14 14 13 13 12 12 11 10 10 9 10 10 10 9 8 9 9 9 8 8 8 8 7 7 7 6 6 6 7 7 7 8 8 8 7 6 6 7 8 8 9 9 9 9 9 8 8 8 8 8 8 9 10 12 11 10 10 10 10 10 10 10 11 10 8 7 6
27 31 28 29 27 24 22 21 19 18 18 17 16 15 15 14 14 14 13 14 13 13 12 12 11 10 10 9 9 10 10 10 9 9 8 8 8 8 8 8 8 7 7 6 6 7 7 7 7 7 6 5 5 5 5 6 6 6 6 6 7 7 7 7 7 6 6 7 7 8 9 9 10 9 9 9 9 9 10 10 10 10 9 7 7
26 32 29 30 28 26 23 22 21 19 19 18 17 16 16 14 14 14 13 12 12 12 11 11 11 11 11 10 10 10 11 10 10 10 9 8 8 8 8 8 9 8 7 7 7 7 7 6 6 5 4 3 3 4 3 4 4 4 3 3 4 4 4 5 5 4 4 5 6 7 8 7 7 8 8 8 8 8 9 9 10 10 10 9 8
27 31 30 30 28 27 25 23 22 20 20 19 18 17 16 14 13 13 13 12 11 11 11 11 11 11 11 11 11 11 11 11 11 10 9 8 7 7 7 8 8 8 8 8 7 7 7 6 6 4 3 3 3 3 2 2 2 1 1 1 0 1 1 2 2 2 3 3 5 6 7 6 6 7 6 5 6 7 7 8 8 9 9 9 8
27 30 29 29 27 25 25 24 23 21 20 20 19 18 17 15 14 13 13 12 11 11 11 11 12 11 11 12 12 11 11 10 10 9 8 7 6 6 7 8 8 9 9 8 7 7 6 6 5 4 3 2 2 1 1 2 2 2 3 3 3 3 3 2 2 1 1 1 4 5 5 6 5 5 5 4 4 5 6 6 6 7 8 8 8
27 30 28 27 24 22 26 26 23 22 21 20 19 18 17 16 15 14 13 12 11 11 11 11 12 12 12 12 11 11 11 10 9 9 7 7 6 6 7 8 8 9 8 7 6 5 5 4 3 3 2 2 2 2 4 4 5 5 5 6 6 6 6 5 4 3 1 1 3 4 4 5 4 4 4 3 3 4 4 4 4 5 6 7 8
26 31 29 25 21 20 26 27 24 21 21 21 20 19 18 17 16 15 14 14 13 12 12 13 13 13 13 12 12 11 10 9 9 9 7 7 7 7 7 8 8 8 7 6 5 4 4 4 4 4 3 3 3 5 6 6 7 7 7 7 8 8 7 6 5 4 2 2 3 4 4 5 4 4 2 2 3 3 3 3 3 4 4 5 7
26 30 29 23 20 20 25 26 24 21 21 21 21 20 18 17 16 16 15 15 15 14 14 14 14 14 13 13 12 11 10 9 9 8 7 7 9 8 7 7 8 8 7 6 5 4 4 4 5 5 5 5 6 7 7 7 8 8 8 8 7 7 7 6 5 3 2 3 3 5 6 5 4 3 2 2 2 2 2 3 2 2 3 3 4
25 28 27 22 19 21 26 26 24 22 20 20 21 20 18 18 16 16 16 16 16 16 16 15 14 14 14 13 12 10 10 9 8 8 7 6 8 10 9 7 8 8 7 6 6 5 4 4 6 7 7 7 7 8 8 8 8 8 8 7 6 5 5 4 3 2 2 3 4 4 5 6 5 4 2 2 1 1 2 2 2 1 1 4 4
24 25 24 20 18 23 28 26 24 22 20 20 21 20 19 18 17 17 17 16 16 16 16 15 15 14 13 12 12 11 10 9 8 8 8 8 8 10 9 9 10 9 7 6 6 6 6 5 6 7 7 7 7 7 7 7 7 7 6 5 4 3 2 2 1 1 3 4 5 6 5 5 5 4 4 4 3 1 1 1 2 2 3 4 4
25 25 22 18 19 25 28 26 25 23 21 21 21 20 20 19 18 18 17 17 17 17 16 15 14 14 13 12 11 10 11 10 9 9 10 9 9 9 9 10 11 9 8 7 8 7 6 6 7 7 7 6 6 6 6 5 4 4 4 4 4 4 4 3 2 2 4 5 6 7 7 6 5 5 5 5 5 4 3 3 3 4 5 5 4
27 26 23 19 21 26 28 26 25 23 22 21 21 20 19 18 18 19 18 18 17 16 16 15 14 13 13 13 11 11 11 10 11 12 12 12 11 10 10 10 10 9 9 9 9 8 7 8 7 7 6 5 4 3 2 2 3 3 4 5 5 5 5 4 3 3 4 6 6 7 7 6 6 7 5 5 5 5 4 5 4 4 5 5 4
27 25 22 19 21 27 28 26 25 24 22 22 21 20 19 18 18 19 18 17 16 15 16 15 14 15 15 14 12 13 12 11 13 13 12 12 11 11 10 10 10 9 10 10 10 9 8 8 7 5 4 2 0 2 2 3 3 3 4 4 5 6 6 5 4 4 4 6 6 7 7 6 6 7 6 5 5 4 4 3 3 3 3 3 2
25 24 22 21 21 26 29 27 26 25 23 23 21 21 21 20 19 19 19 18 17 17 17 16 16 16 16 15 13 14 14 13 13 12 13 13 12 12 12 11 11 10 11 11 10 9 8 7 6 4 2 3 3 3 4 3 4 3 4 4 5 6 6 5 4 4 5 6 7 7 7 6 6 6 5 4 4 4 3 3 2 2 4 5 3
22 22 22 23 21 23 29 29 28 27 26 25 24 23 24 23 21 20 21 20 18 18 19 19 19 18 16 16 15 16 15 15 14 13 14 13 13 13 13 12 12 11 11 11 10 9 8 7 5 4 4 4 4 4 4 4 4 3 4 4 5 5 5 5 5 5 5 6 7 7 6 5 6 5 4 4 3 3 2 2 1 1 2 3 4
18 18 20 25 25 22 25 28 30 30 28 27 26 25 25 26 24 22 22 22 21 21 20 20 20 19 18 17 17 17 16 17 15 14 14 13 13 13 13 13 12 11 10 11 10 9 8 7 6 6 5 5 5 4 4 3 3 3 4 4 4 5 5 5 5 5 5 5 7 6 5 4 6 5 4 3 2 2 2 1 1 2 2 2 3
16 17 19 24 28 25 22 23 27 30 30 29 28 27 27 27 26 25 24 23 23 22 21 21 21 20 20 19 19 19 19 19 17 15 14 13 13 13 13 13 12 12 12 11 11 10 9 7 6 6 5 4 4 3 3 2 3 3 4 4 4 5 5 5 4 4 4 5 7 5 4 5 5 4 3 3 2 1 1 1 2 2 3 4 4
16 18 20 21 26 27 24 22 24 27 28 29 29 29 29 28 27 27 26 25 24 24 23 23 22 21 21 21 20 21 22 21 18 16 15 14 14 14 13 13 13 13 13 12 12 11 9 8 7 6 5 4 3 2 2 2 3 4 5 5 5 5 5 5 4 4 4 5 5 4 4 5 4 3 3 2 2 1 2 3 3 3 3 3 4
16 18 21 22 24 26 25 25 26 27 26 27 29 29 29 28 27 27 27 27 26 25 25 24 24 22 22 22 22 22 22 21 20 17 15 15 15 15 14 14 13 13 14 13 13 12 10 10 9 8 6 5 4 2 1 2 2 3 4 5 5 6 5 5 4 4 3 4 4 3 5 5 4 3 3 2 1 2 2 1 2 2 2 2 2
15 18 22 23 24 27 29 26 27 32 31 30 31 30 29 28 28 28 28 27 27 26 26 26 25 23 23 23 24 23 21 20 19 17 16 16 16 16 15 15 14 15 15 14 13 12 11 10 9 8 7 5 3 2 1 1 1 1 2 3 4 5 5 5 5 4 3 3 2 3 5 4 3 3 4 2 2 1 1 1 1 2 2 2 3
16 17 20 23 24 28 34 29 28 36 36 34 34 32 31 29 29 28 28 28 28 27 27 27 26 25 25 25 24 21 18 17 17 17 16 17 18 17 17 16 15 16 16 14 13 13 12 11 10 8 6 5 4 3 2 1 1 1 1 2 3 3 4 4 4 3 2 1 1 2 4 4 3 3 3 3 3 3 4 4 4 4 4 4 5
18 20 22 24 24 25 30 29 33 39 38 37 35 34 32 30 30 26 27 28 29 29 27 28 28 26 28 28 22 19 19 17 17 19 18 18 18 18 18 17 16 17 17 15 14 13 13 12 10 8 6 5 4 4 3 2 2 1 1 2 2 3 3 3 3 2 1 0 1 2 4 4 4 4 3 4 4 4 5 5 5 5 6 6 6
25 24 22 23 24 26 26 27 36 39 38 38 36 35 33 31 30 25 24 25 28 30 27 28 30 29 32 30 22 22 24 20 20 22 20 19 18 19 20 19 18 18 17 15 15 15 14 13 10 8 7 6 5 5 4 4 3 3 2 3 3 3 3 3 3 2 2 2 1 2 3 5 4 4 3 4 4 5 5 5 6 6 6 7 7
27 23 21 26 28 30 29 29 34 34 36 39 37 36 34 31 30 27 25 25 27 29 28 30 33 33 33 30 27 28 27 23 23 23 21 18 18 20 21 19 18 19 18 17 17 17 15 13 11 10 9 8 7 6 6 5 4 4 4 4 4 3 3 3 3 3 3 3 3 3 2 4 5 4 4 4 5 5 5 6 6 6 6 7 7
24 25 26 31 32 33 32 31 31 30 34 37 37 38 36 34 32 31 29 26 27 30 31 34 35 35 34 33 32 31 28 25 25 25 23 20 19 20 20 20 20 22 21 20 19 18 15 13 12 12 10 9 8 7 7 6 6 5 5 5 4 4 4 4 3 3 3 4 4 4 4 4 5 5 4 4 5 5 6 6 6 6 6 6 6
27 30 31 32 33 35 36 35 32 29 29 28 33 39 39 38 35 35 34 29 31 34 35 36 37 37 36 36 34 32 30 28 28 28 27 25 24 24 24 24 24 24 23 22 20 17 16 15 14 13 12 11 10 9 9 8 7 7 6 6 5 5 4 4 4 3 3 4 4 4 4 5 6 6 5 5 5 5 6 6 6 6 6 7 6
29 32 33 33 35 37 38 39 36 32 30 27 33 39 40 41 38 38 38 35 35 37 38 38 39 39 38 37 35 34 32 30 31 31 31 29 28 29 29 29 27 25 24 22 20 18 17 16 15 14 13 12 11 11 10 9 9 8 7 6 6 5 4 4 4 3 3 4 4 4 5 6 7 7 6 5 5 5 6 6 6 6 6 7 6
30 34 34 36 37 38 39 41 40 38 36 31 31 35 40 43 41 42 41 39 39 39 40 41 41 40 40 39 37 36 34 33 33 33 33 32 32 32 32 30 28 26 24 22 20 19 18 17 16 15 15 14 13 12 11 11 10 9 8 7 6 5 4 4 4 3 3 3 4 4 5 6 8 7 6 5 5 5 5 6 6 6 6 6 6
34 32 33 37 36 36 39 41 43 43 40 35 31 33 40 44 44 45 44 42 42 41 42 43 42 42 42 41 39 38 37 36 35 35 35 34 34 33 32 32 29 27 24 23 22 21 20 19 18 17 16 15 15 14 12 12 11 10 9 7 6 5 4 4 3 3 3 3 3 3 4 7 8 8 6 6 6 6 6 6 6 6 6 6 7
32 30 34 36 36 37 38 39 41 44 44 42 38 37 41 46 46 46 45 45 45 44 44 44 44 44 44 43 41 40 39 38 37 37 36 36 36 35 34 33 30 28 26 25 24 22 21 20 19 18 18 17 16 14 13 12 11 10 9 8 7 5 4 4 4 3 3 3 3 4 5 6 8 9 8 7 7 8 7 7 7 6 6 6 7
31 35 38 35 37 38 37 37 39 42 45 46 46 44 43 45 47 46 46 47 47 46 46 46 46 46 46 44 43 41 41 40 39 38 37 37 37 36 36 34 32 30 28 27 25 24 23 21 20 20 19 18 16 15 14 13 12 11 10 9 7 6 5 4 4 4 4 4 4 5 6 7 8 9 9 9 8 8 8 8 8 7 7 7 7
32 36 35 34 37 37 37 39 39 41 45 48 49 49 48 47 48 48 47 47 48 47 47 48 48 48 47 46 44 43 42 41 40 39 38 38 38 38 37 35 33 31 29 28 26 25 24 22 21 20 19 18 17 16 15 14 13 12 11 9 8 6 5 5 5 4 4 5 6 6 7 8 9 10 10 9 9 9 8 7 8 8 8 7 6
32 32 32 34 36 36 38 40 40 42 45 47 48 49 50 50 50 49 47 47 48 48 49 49 49 49 49 47 46 45 44 43 42 40 39 39 39 38 38 36 35 33 30 29 27 26 25 24 23 22 21 19 18 18 17 16 14 13 11 9 8 7 6 5 5 5 6 6 7 8 9 9 10 11 10 9 10 10 9 8 7 8 8 8 7
31 31 35 36 35 35 38 40 41 43 44 46 47 49 51 51 50 49 48 49 48 48 49 49 50 50 50 49 48 46 45 44 43 41 40 40 40 39 38 37 36 33 31 30 29 28 27 26 25 24 22 21 20 19 17 16 15 13 11 10 8 7 6 6 6 7 7 8 8 9 10 10 11 12 11 10 10 10 11 10 9 9 8 7 6
31 33 35 34 34 35 36 38 41 43 44 46 48 49 49 48 49 48 48 50 49 49 49 49 50 50 50 50 49 48 46 45 44 42 42 41 41 40 39 38 37 34 33 33 32 31 29 28 26 25 25 23 21 20 18 16 15 14 12 10 9 8 8 8 8 8 9 9 10 11 11 12 12 12 11 11 10 10 11 11 11 10 9 8 7
30 32 32 32 33 34 35 37 39 42 44 45 46 46 45 45 46 45 45 47 48 49 49 49 50 50 50 50 50 49 48 46 45 44 43 42 42 41 40 39 37 36 35 35 33 32 31 30 28 27 26 24 23 22 19 16 16 14 12 11 10 9 10 10 10 10 10 11 12 12 12 12 12 12 11 11 10 10 10 10 11 11 10 9 9
27 28 30 31 31 32 34 35 36 38 39 40 41 42 41 39 40 40 42 44 46 47 47 48 49 49 50 51 51 50 49 48 47 45 44 43 43 42 41 40 38 37 37 36 35 34 32 31 30 28 27 25 23 22 19 17 17 14 12 11 11 11 11 11 11 10 11 13 14 14 13 13 13 12 12 11 10 10 10 10 10 10 11 10 10
23 25 26 27 28 29 31 32 32 33 34 36 36 36 34 31 31 33 38 41 42 43 45 46 46 48 49 51 51 50 50 49 48 46 45 44 44 43 42 41 39 39 38 37 36 35 34 32 31 30 28 25 21 20 20 19 17 14 12 11 11 12 12 12 12 11 12 14 15 14 14 13 13 13 12 11 10 10 9 9 9 9 10 10 9
20 21 21 22 24 26 27 28 29 30 29 28 29 29 26 24 24 27 32 35 37 40 43 43 43 45 48 50 51 50 50 50 49 48 47 46 45 44 43 42 40 40 39 38 37 37 36 34 32 31 30 27 22 20 21 20 16 12 10 9 10 11 12 13 13 13 13 14 14 13 13 13 13 12 12 11 10 9 8 8 9 9 8 8 7
17 16 16 17 19 21 22 24 26 27 26 24 24 25 24 23 23 25 28 28 31 36 39 41 42 43 46 48 49 50 50 50 50 49 48 47 46 44 44 42 41 41 41 40 39 39 37 36 33 31 30 28 24 23 23 21 16 10 7 6 6 8 11 12 12 13 14 14 14 13 13 13 12 12 11 10 10 9 8 8 8 8 7 6 6
15 14 13 13 14 16 17 20 22 24 26 25 25 26 26 26 25 25 25 23 28 35 35 38 42 43 44 46 47 48 49 50 50 49 49 48 46 45 44 44 43 42 41 41 40 39 38 37 35 31 29 25 23 25 27 21 14 10 9 7 5 5 7 8 8 11 14 14 14 13 13 13 13 12 10 9 8 8 9 9 9 8 7 7 7
18 16 14 12 11 12 13 15 18 22 25 25 26 26 25 26 25 23 22 20 23 31 33 35 39 42 43 44 46 46 47 48 48 49 48 48 47 46 45 45 44 43 43 42 40 40 39 38 37 34 29 21 18 26 31 23 14 11 10 6 5 5 4 6 8 10 12 14 13 13 13 14 13 11 9 7 7 7 8 8 8 8 7 8 9
20 19 19 16 12 9 10 11 13 18 22 24 28 27 24 26 27 26 24 21 21 25 29 32 34 35 38 40 42 44 45 46 47 48 48 48 47 47 46 46 45 45 45 44 42 42 41 41 40 36 32 23 17 25 35 30 19 13 9 3 3 4 3 7 10 10 11 13 13 12 14 14 13 11 8 7 6 6 7 7 8 8 8 9 10
21 25 24 19 15 11 8 8 9 13 17 21 25 26 24 23 23 24 22 19 20 19 21 24 23 25 29 32 35 39 41 43 45 46 47 48 47 47 47 46 46 46 46 46 45 44 44 43 42 39 38 31 23 24 33 36 27 20 12 3 3 4 3 7 10 9 11 13 12 12 14 15 13 11 8 7 7 6 7 7 8 9 9 10 12
26 30 27 23 19 15 11 8 6 8 12 16 20 22 21 19 17 19 17 16 17 17 17 18 18 23 28 29 33 37 40 42 44 46 47 47 48 48 47 47 47 47 47 46 46 46 45 45 44 42 42 37 28 23 29 37 34 28 21 11 7 4 2 9 7 5 9 11 11 13 15 16 15 13 10 9 8 8 9 9 9 10 10 11 13
29 33 30 28 25 21 16 11 6 5 9 12 16 18 17 16 16 17 16 15 15 15 16 17 18 23 27 30 34 36 39 41 43 44 45 47 48 48 48 48 47 47 48 47 46 47 47 46 46 45 45 40 32 24 27 36 34 30 29 21 14 8 7 11 7 3 6 7 11 14 15 18 18 16 14 12 10 10 10 10 11 11 12 13 14
31 34 33 31 29 26 22 16 10 7 8 10 12 15 15 13 15 16 15 15 14 11 11 14 16 18 22 27 30 32 36 39 40 41 43 45 47 48 48 48 48 48 48 48 48 48 47 48 47 47 46 42 38 30 26 34 34 28 31 27 19 14 11 12 10 6 5 4 8 11 13 17 19 18 17 16 13 11 11 12 12 12 12 14 15
31 34 34 32 30 28 26 22 17 12 10 10 9 13 14 13 13 14 14 14 14 12 10 11 12 14 18 22 25 27 32 36 38 40 42 43 45 47 48 48 49 48 48 48 48 48 48 49 49 48 47 45 44 37 25 32 37 29 31 31 20 14 13 13 13 9 6 4 5 8 10 12 14 16 18 19 16 14 13 13 14 14 13 14 15
30 34 37 36 33 30 27 24 21 17 14 12 9 10 12 14 12 12 14 14 12 11 11 11 11 13 15 18 20 23 26 32 37 39 42 44 45 46 46 47 48 48 48 48 48 48 48 49 49 49 50 48 48 45 31 30 37 32 32 34 24 15 11 10 11 10 7 5 4 5 10 11 10 13 17 20 19 16 15 15 15 15 15 15 15
29 34 39 38 35 33 28 24 24 21 17 14 10 9 10 12 12 11 13 13 12 11 12 12 11 12 14 15 17 19 22 27 32 36 40 43 44 45 45 45 46 47 49 49 49 49 48 48 48 48 50 50 49 49 42 34 34 32 32 34 30 26 20 14 14 15 10 7 5 4 8 11 8 9 14 20 20 17 16 16 16 17 17 16 15
Wind_Direction
195 187 188 191 185 179 175 180 181 184 185 181 182 178 177 173 170 168 163 162 162 161 160 160 156 158 155 153 153 150 151 150 146 143 147 146 145 144 142 138 130 128 124 125 131 135 128 121 120 118 114 114 116 109 99 94 94 90 86 83 83 86 88 90 91 93 96 99 96 90 87 92 96 101 103 97 90 85 83 87 83 72 74 82 85
191 185 187 191 188 183 175 180 182 184 187 183 185 182 182 179 176 175 171 170 168 169 169 167 163 163 161 161 164 161 161 160 158 155 155 153 153 152 150 145 138 138 135 139 144 144 133 130 132 126 124 125 120 101 89 90 96 91 84 81 78 78 82 87 92 93 93 94 96 94 91 94 96 98 102 99 91 87 83 82 86 80 74 81 88
186 183 185 190 188 186 178 180 182 183 186 184 186 185 187 185 184 184 180 177 176 176 173 170 166 166 166 168 169 168 168 165 165 161 161 161 162 162 159 155 150 148 146 143 140 142 138 141 140 129 128 129 119 106 94 93 101 96 89 84 77 74 74 77 85 92 96 93 96 100 92 92 97 96 99 98 93 88 84 82 84 79 70 74 84
185 183 185 189 188 188 182 180 183 184 186 185 187 188 189 188 188 188 185 183 181 178 174 172 168 170 170 169 170 171 172 168 167 164 165 171 172 167 161 158 152 149 145 139 143 146 145 148 139 132 141 143 141 133 117 106 113 111 105 92 78 70 66 64 69 77 94 100 105 101 87 85 97 100 101 101 95 88 84 81 78 75 70 70 77
182 183 185 187 187 189 186 184 184 185 187 186 188 189 190 191 191 189 187 188 186 180 176 174 171 173 171 171 174 174 174 171 170 165 163 170 171 161 155 155 147 144 141 141 148 144 147 148 135 149 167 154 155 139 127 121 137 139 162 215 329 358 26 32 42 54 72 97 112 104 90 86 94 105 107 104 99 87 82 79 75 73 70 70 70
180 185 184 186 186 189 188 187 187 187 189 189 191 192 192 193 193 192 190 190 189 184 180 177 175 174 174 175 176 177 174 169 165 159 157 160 161 153 149 149 146 144 140 140 139 139 148 141 135 167 178 171 183 141 334 308 296 292 286 287 291 294 296 302 315 319 24 79 107 107 101 95 94 110 115 109 98 84 78 75 72 73 71 73 69
182 186 183 185 185 190 191 189 191 189 191 192 193 195 195 196 195 194 194 193 190 188 184 182 180 177 180 177 175 174 169 164 161 159 155 152 154 152 148 145 147 144 138 135 131 144 154 146 171 193 185 206 240 297 312 305 300 298 294 293 293 294 293 289 288 277 253 150 121 116 112 109 106 108 114 118 106 93 91 81 72 74 73 77 75
185 187 184 185 185 196 194 191 192 190 192 194 195 197 198 199 198 197 197 195 190 189 189 188 186 184 184 180 174 169 165 164 166 169 159 158 160 153 153 150 152 152 151 150 141 156 157 170 214 218 215 239 266 290 300 299 298 300 298 295 293 292 290 287 282 272 248 198 160 144 131 119 120 111 97 110 114 118 112 84 52 55 64 72 80
187 188 185 186 188 199 196 193 194 192 194 195 197 198 200 202 201 201 200 196 191 190 193 193 190 189 187 182 176 167 166 167 171 177 167 173 173 164 168 166 171 171 168 168 166 169 158 185 227 236 241 253 271 285 291 295 298 302 302 302 300 296 291 287 279 263 235 200 170 163 153 129 121 118 117 127 129 152 123 95 63 44 49 63 80
187 188 188 187 192 198 194 193 195 196 196 197 198 198 201 202 202 203 201 196 193 193 194 194 191 192 187 180 176 172 173 176 181 187 188 201 192 182 184 184 190 188 180 176 180 184 169 196 236 244 251 260 271 281 288 293 298 303 306 309 306 304 299 290 281 246 189 171 151 148 156 138 117 108 120 133 146 184 156 152 149 134 99 76 74
187 189 189 189 196 197 192 192 195 197 196 198 198 198 202 201 202 201 199 196 194 195 195 195 193 190 183 179 180 186 187 184 191 203 218 228 213 198 193 190 193 193 190 185 183 176 167 209 243 247 254 262 272 280 287 295 300 309 315 325 331 336 333 321 299 204 166 153 145 127 121 119 114 110 107 98 90 71 85 150 148 153 140 102 95
190 190 191 193 197 195 190 192 195 195 196 198 199 201 201 200 201 199 196 197 198 196 196 195 191 188 185 184 186 194 196 196 211 227 233 227 214 203 200 198 197 198 193 181 177 175 186 230 248 250 259 265 273 280 289 303 316 338 354 9 19 26 32 44 88 145 152 147 150 134 106 88 104 110 97 92 87 68 70 94 105 121 122 115 110
193 192 194 195 195 193 190 191 193 194 197 198 199 200 198 199 201 198 196 196 199 196 195 194 191 193 193 195 196 201 204 215 225 225 222 215 205 199 202 200 196 196 184 178 189 202 221 239 247 252 263 268 274 287 317 4 27 32 36 36 41 42 46 52 78 119 144 145 145 138 107 72 95 107 94 90 89 82 89 95 104 119 122 124 117
196 195 195 193 192 193 191 192 193 195 198 199 198 198 197 198 197 197 197 194 196 197 198 196 197 202 203 207 209 213 217 224 221 211 209 206 199 197 200 198 193 190 187 200 215 221 225 234 244 247 250 243 165 85 77 71 65 58 56 52 54 53 58 60 72 104 134 144 141 135 101 67 96 110 97 87 83 84 100 104 110 160 198 195 154
202 198 196 193 193 194 193 193 195 195 196 199 198 197 198 198 198 198 198 196 199 205 206 205 208 211 213 217 216 223 227 221 217 206 204 204 200 197 196 196 194 192 201 218 223 218 218 226 230 214 185 141 118 106 101 95 89 79 72 66 65 64 69 76 86 106 129 144 142 128 91 76 100 103 92 87 83 79 91 101 107 199 236 242 243
206 201 198 196 195 195 196 196 197 197 197 200 200 200 200 201 203 203 206 205 207 213 214 211 213 215 218 222 218 223 224 214 213 207 203 203 201 198 196 195 195 196 206 218 216 211 210 210 201 171 156 140 131 125 117 112 103 92 84 75 72 74 77 88 103 118 136 147 145 119 76 82 100 90 86 87 86 83 82 84 97 224 237 239 243
204 202 201 200 199 197 199 200 200 200 200 203 204 204 203 205 207 207 211 211 212 218 218 215 214 215 217 219 216 217 217 209 207 205 203 203 202 200 198 195 196 195 198 209 208 205 203 195 180 160 153 145 138 133 124 118 105 90 79 71 70 72 74 87 103 123 134 145 148 115 68 92 105 90 88 90 95 99 88 84 266 270 274 269 271
202 203 204 204 203 201 201 203 203 204 206 209 210 209 207 209 211 211 212 212 213 217 218 217 216 216 217 217 214 215 216 211 206 204 204 203 203 200 196 194 192 190 195 206 204 201 199 186 173 164 158 151 143 134 116 91 69 55 50 48 53 57 63 76 91 112 126 141 140 106 88 113 106 93 94 94 101 107 94 271 269 281 288 287 294
204 206 207 207 206 206 205 206 206 207 210 212 213 213 212 212 212 212 213 213 213 214 216 219 217 216 216 214 213 214 215 213 209 206 206 206 205 201 195 192 188 189 199 203 201 200 194 184 179 175 168 163 154 133 96 53 33 23 20 18 22 29 41 54 73 93 116 140 125 102 135 124 85 78 90 90 94 236 267 284 284 290 298 302 302
211 211 210 209 209 210 210 211 211 211 211 213 214 214 216 214 213 212 213 214 212 213 216 219 217 215 215 212 213 215 215 215 213 210 209 210 207 203 195 190 188 191 199 199 200 198 191 188 183 181 177 170 161 140 102 52 27 12 4 0 1 4 14 23 41 66 93 130 125 132 163 133 79 66 66 67 39 282 278 311 310 306 320 343 342
215 215 214 213 213 214 214 215 215 216 216 216 217 217 217 215 213 213 215 215 212 213 217 219 215 212 213 211 214 215 213 214 213 210 211 211 209 205 195 188 185 190 199 198 198 195 191 191 186 185 181 170 161 150 145 105 24 1 354 348 347 349 352 0 13 30 56 101 136 161 169 145 90 61 54 48 32 13 32 59 55 44 47 48 55
216 215 214 214 216 217 217 218 219 220 219 220 221 220 219 216 213 214 216 215 212 214 217 218 214 211 212 212 213 211 208 206 205 205 205 207 209 204 194 186 184 193 200 198 196 195 193 194 192 189 181 174 170 169 181 184 207 271 312 325 330 334 341 347 358 9 29 78 162 181 169 149 93 64 63 63 62 74 82 88 88 86 81 74 74
214 214 214 212 213 216 218 219 221 222 222 223 224 222 220 216 213 213 214 214 213 214 214 215 212 209 212 212 208 205 204 201 202 204 202 204 205 200 192 186 188 195 200 199 196 195 196 198 196 192 185 183 183 189 199 203 211 228 253 287 304 308 322 331 341 354 359 34 194 195 176 154 108 77 78 82 87 95 95 96 96 94 89 84 83
216 215 213 210 210 213 215 217 220 222 222 223 224 222 218 216 213 212 212 210 212 213 211 212 211 210 213 211 204 208 210 206 210 212 208 205 202 197 192 192 195 200 201 197 194 196 199 200 196 193 193 193 194 201 204 209 216 223 237 256 274 285 296 305 312 314 312 303 256 221 184 164 133 97 96 100 102 106 104 104 102 101 96 90 86
222 216 213 213 214 214 214 216 217 219 221 222 222 220 217 215 212 211 210 208 210 209 209 212 213 214 215 211 208 215 215 211 215 214 207 201 196 194 193 194 195 200 200 192 193 198 200 199 195 195 197 199 200 206 208 210 218 224 233 244 253 263 271 279 284 287 290 290 280 264 226 182 153 118 112 114 111 111 111 111 109 107 101 93 87
224 221 219 220 220 218 216 215 214 215 219 220 220 219 217 215 213 212 210 207 209 208 210 213 214 216 215 214 215 218 215 211 214 210 202 196 191 190 190 192 194 200 199 194 198 200 199 197 197 198 199 202 204 208 210 211 215 222 229 234 242 246 253 261 264 269 269 269 270 263 249 205 172 139 125 126 122 120 117 117 117 114 107 99 89
228 228 225 224 224 223 220 216 215 214 214 215 217 218 218 216 215 214 212 208 210 210 212 213 214 216 215 217 217 216 213 211 212 209 205 201 196 195 195 197 201 204 202 201 203 200 197 198 199 201 202 204 205 208 209 211 215 217 222 225 229 233 240 247 250 255 251 252 253 247 235 203 175 147 132 133 131 129 127 124 121 119 116 109 95
232 233 229 228 227 228 225 219 218 214 211 211 214 218 219 218 216 216 215 213 213 213 213 214 215 216 216 218 216 215 213 211 212 211 209 205 202 203 203 205 206 207 206 204 204 200 199 199 201 202 202 205 205 207 207 208 211 212 216 217 219 224 228 236 240 245 243 243 241 233 217 191 172 151 134 130 132 133 133 133 130 126 123 119 106
235 235 232 231 231 231 228 223 221 218 215 212 211 215 218 218 217 218 217 215 216 215 215 216 216 216 217 218 216 215 214 213 214 212 210 208 207 208 207 208 209 209 208 205 203 202 202 201 201 202 203 205 204 206 207 207 209 208 210 210 214 218 224 234 239 242 241 239 236 228 210 188 172 158 134 116 119 127 130 134 134 133 131 127 117
239 237 235 234 233 231 231 227 225 223 219 215 211 213 217 218 218 219 218 217 218 216 216 217 217 217 217 218 218 217 216 215 215 213 211 210 210 210 209 210 211 211 209 206 204 203 205 204 202 203 203 204 204 204 206 207 207 206 206 207 212 218 228 238 242 247 243 233 225 214 204 192 176 158 133 112 111 114 119 123 124 130 132 128 123
242 239 239 239 236 234 233 230 227 226 222 218 216 216 218 219 219 220 219 219 219 218 218 218 218 219 219 219 219 219 218 218 217 215 213 212 211 210 209 210 211 211 209 207 206 204 205 205 204 204 204 203 203 203 203 204 205 206 205 205 210 216 227 237 243 242 231 220 211 195 186 189 179 156 133 116 114 110 105 107 110 116 124 129 126
244 244 243 240 240 237 233 232 229 227 224 221 222 222 221 220 221 221 221 221 220 219 219 219 219 220 221 221 221 220 220 219 219 218 215 213 212 210 210 211 212 211 209 207 206 205 204 206 206 205 204 203 202 202 202 201 203 204 203 204 208 213 221 230 236 233 225 209 194 184 174 177 177 164 145 130 124 112 101 100 102 104 114 125 122
251 252 246 241 241 238 235 234 231 229 227 225 225 225 224 223 223 222 222 221 221 220 220 221 221 221 222 223 222 221 221 220 220 220 217 214 213 212 212 212 212 211 209 208 206 206 205 206 206 205 203 202 202 202 201 199 201 203 203 204 205 210 217 221 226 223 215 201 188 181 175 172 172 175 170 159 150 135 121 115 117 120 116 112 113
256 254 249 246 244 238 236 234 230 230 229 227 225 226 225 224 225 223 222 222 222 221 221 222 222 222 223 223 223 223 222 221 221 220 217 216 215 214 214 213 213 211 209 207 206 206 206 205 205 202 202 201 201 201 199 198 200 201 203 204 205 207 211 215 220 216 206 197 190 184 179 176 175 181 185 184 180 168 154 143 142 144 132 115 110
257 253 253 252 247 241 238 233 231 231 229 227 226 226 225 224 225 223 222 224 223 222 222 222 222 223 223 224 223 223 223 222 222 221 217 217 216 216 215 214 214 212 209 207 206 206 206 206 204 201 199 198 200 199 197 197 198 200 200 201 203 204 209 216 215 210 204 195 190 186 181 180 181 184 185 188 194 190 181 172 168 166 158 142 120
258 255 255 253 247 243 241 236 232 231 229 229 228 227 225 224 224 223 223 225 224 223 223 223 223 223 223 223 223 223 223 223 223 222 219 217 217 216 216 216 215 211 208 208 207 206 206 205 204 202 200 197 198 198 195 196 196 198 199 199 201 202 205 208 207 203 198 193 190 188 186 186 187 188 187 188 192 194 196 197 195 190 184 175 159
263 259 255 252 248 243 241 238 234 232 230 230 228 226 225 224 225 224 224 225 224 224 224 224 224 223 223 223 223 223 223 223 224 223 220 219 218 217 217 217 216 211 209 208 206 207 206 205 204 203 202 198 196 195 193 193 196 197 198 199 196 195 197 198 198 195 192 191 189 188 189 191 191 192 193 194 196 197 203 208 211 209 204 196 185
266 263 257 254 250 245 242 240 235 232 229 228 227 226 225 226 225 225 225 225 225 224 224 225 224 224 223 223 224 224 223 223 224 223 221 220 220 219 219 218 215 211 210 208 206 207 207 207 205 203 201 198 194 193 191 192 193 191 190 193 191 190 194 195 192 185 185 188 188 188 188 190 192 195 198 200 202 203 205 209 211 213 213 207 196
270 266 262 256 251 247 244 241 235 230 228 227 227 226 225 225 225 226 227 226 226 225 224 225 225 224 224 224 225 224 223 223 223 223 221 221 220 220 219 218 215 211 209 207 206 206 206 207 206 204 200 196 192 190 191 190 186 184 184 185 188 190 193 192 187 180 182 187 188 189 188 189 194 198 200 203 205 206 207 209 209 212 215 215 204
280 272 264 257 252 247 244 241 235 230 226 222 221 220 218 218 220 223 226 226 226 226 226 225 226 226 225 225 226 225 224 223 223 223 222 221 220 220 219 218 214 211 209 207 207 209 208 207 206 205 200 195 191 190 191 186 173 166 169 172 180 188 191 189 186 185 186 187 186 186 188 190 194 199 201 203 209 213 215 217 215 215 215 216 208
302 290 274 263 256 248 243 241 237 230 222 216 214 212 209 210 214 218 223 224 224 226 227 227 227 227 227 226 226 225 224 224 223 222 222 220 219 219 218 217 214 211 211 211 211 211 209 207 205 204 201 196 193 192 190 180 163 148 143 150 164 180 188 187 187 191 190 188 187 186 189 190 194 198 204 209 217 222 225 226 222 218 214 205 191
329 319 302 283 269 255 245 240 237 231 224 220 217 215 213 213 215 219 220 220 223 226 226 228 229 228 229 228 227 226 225 224 224 223 222 220 218 217 217 217 215 212 212 212 212 212 210 208 204 200 198 195 195 193 187 178 172 168 155 145 151 168 188 189 191 195 193 192 190 189 189 191 195 199 205 216 225 229 227 227 223 219 212 196 179
0 353 342 327 301 272 254 243 237 235 231 226 224 221 219 219 220 222 221 220 226 229 229 230 231 231 230 230 228 227 226 225 224 223 221 220 218 218 218 217 216 214 212 211 211 211 209 208 205 200 193 189 195 196 190 185 182 172 160 163 175 168 190 202 201 198 194 194 193 193 194 195 197 196 198 206 215 223 224 225 226 223 212 192 175
14 9 2 354 339 308 274 254 244 240 236 232 230 227 224 225 224 225 227 225 231 234 233 234 235 233 231 231 230 228 227 225 225 224 222 221 220 219 219 218 217 215 213 212 211 210 209 208 206 201 194 186 188 196 195 193 186 170 167 178 168 181 220 196 188 192 193 195 196 197 198 196 194 190 187 194 204 217 226 232 234 228 213 190 174
15 12 9 2 354 342 313 279 258 248 242 239 237 230 226 226 223 225 229 229 234 236 234 234 234 233 232 232 231 229 228 227 226 226 224 223 222 221 221 220 218 216 214 212 212 211 210 209 206 203 200 194 189 192 197 199 195 188 188 172 145 210 240 163 165 184 192 198 201 200 201 196 193 194 196 208 218 228 237 241 237 225 209 188 175
13 16 15 10 5 360 349 325 288 259 251 246 241 232 225 222 216 215 217 220 227 227 226 225 224 228 231 232 233 232 230 229 228 227 226 224 223 223 222 221 220 217 215 213 213 212 211 211 209 206 205 202 193 188 195 201 203 201 200 195 188 209 145 148 158 178 187 202 209 206 207 205 203 207 213 223 230 237 243 242 234 220 203 186 177
13 20 22 18 14 11 7 356 334 294 273 259 245 234 225 221 217 215 216 217 222 225 223 220 222 226 227 229 233 233 232 230 229 229 227 225 224 223 223 222 221 220 217 214 214 214 213 213 213 210 208 204 198 191 193 199 204 209 209 208 209 206 154 158 176 166 172 203 214 213 217 216 215 218 223 230 232 234 240 241 230 216 201 187 179
17 23 25 23 20 17 15 11 1 339 302 282 254 239 229 223 222 222 225 228 231 236 230 223 225 225 224 227 230 231 231 230 229 229 228 226 225 224 224 223 221 221 219 216 216 216 215 215 214 212 210 206 203 201 197 198 201 207 211 214 221 219 196 186 196 198 196 194 194 207 220 219 221 224 225 229 231 228 232 235 226 212 201 190 182
21 25 27 28 26 23 21 18 12 3 336 312 276 250 239 231 229 228 232 236 237 243 241 231 229 227 227 228 228 229 231 230 229 229 229 228 227 226 224 223 222 222 220 219 218 218 218 217 215 213 211 210 209 207 203 203 203 203 207 211 217 218 213 214 212 209 222 217 183 191 197 203 220 225 223 226 228 226 227 230 225 211 200 193 188
25 28 32 33 31 27 25 23 17 10 354 336 307 272 252 241 240 237 238 241 240 243 244 239 235 232 231 229 228 229 230 230 229 229 229 229 228 227 225 224 223 222 222 220 220 220 220 219 218 217 215 213 213 211 209 209 208 207 208 207 203 198 201 214 214 203 211 232 219 186 178 182 201 208 213 220 222 222 224 226 223 211 201 196 194
28 30 33 33 32 31 28 25 22 15 3 350 330 300 275 256 251 248 247 248 248 249 248 245 239 232 231 229 227 227 228 230 229 228 229 229 228 227 226 226 224 223 223 222 222 222 221 221 220 220 218 216 216 214 213 214 213 212 212 209 205 203 202 200 201 198 197 209 211 190 179 184 185 179 195 209 211 214 219 222 220 210 203 200 199